Home > Weather > Geneva > Past weeks

Flag for Switzerland Past Weather in Geneva, Geneva, Switzerland — Yesterday and Last 2 Weeks

Now
62 °F

Cool.


Feels Like: 62 °F
Forecast: 60 / 89 °F
Wind: 1 mph from Northwest

Location: Geneve-Cointrin

Current Time: Aug 25, 2016 at 6:52:33 AM

Latest Report: Aug 25, 2016 at 6:00 AM


Visibility: N/A

Pressure: 30.11 "Hg

Humidity: 94%

Dew Point: 60 °F

Location of GenevaLocation

Past Weather in Geneva — Graph

°F

Geneva Temperature Yesterday

Maximum temperature yesterday: 84 °F (at 6:00 PM)
Minimum temperature yesterday: 57 °F (at 6:00 AM)
Average temperature yesterday: 71 °F

High & Low Weather Summary for the Past Weeks

 TemperatureHumidityPressure
High88 °F (Aug 14, 4:00 PM)95% (Aug 19, 4:00 AM)30.38 "Hg (Aug 19, 4:00 AM)
Low48 °F (Aug 22, 7:00 AM)30% (Aug 16, 3:00 PM)29.78 "Hg (Aug 17, 6:00 PM)
Average67 °F66%30.11 "Hg
* Reported Aug 10 5:00 AM — Aug 25 5:00 AM, Geneva, Weather by CustomWeather, © 2016

Note: Actual official high and low records may vary slightly from our data, if they occured in-between our weather recording intervals... More about our weather records

Advertising

Geneva Weather History for the Previous 24 Hours

Scroll right to see more
 ConditionsComfort  
Time TempWeatherWind HumidityBarometerVisibility
5:00 AM
Thu, Aug 25
63 °FClear.1 mph92%30.10 "Hg37 mi
3:00 AM64 °FMild.No wind90%30.10 "HgN/A
2:00 AM65 °FClear.1 mph89%30.10 "Hg43 mi
1:00 AM66 °FMild.1 mph88%30.10 "HgN/A
12:00 AM68 °FMild.1 mph82%30.09 "HgN/A
11:00 PM
Wed, Aug 24
69 °FClear.2 mph80%30.09 "Hg43 mi
10:00 PM71 °FMild.1 mph74%30.08 "HgN/A
9:00 PM72 °FMild.1 mph71%30.07 "HgN/A
8:00 PM79 °FSunny.3 mph57%30.03 "Hg40 mi
7:00 PM84 °FWarm.7 mph45%30.03 "HgN/A
6:00 PM84 °FWarm.7 mph45%30.03 "HgN/A
5:00 PM84 °FSunny.6 mph44%30.05 "Hg43 mi
4:00 PM82 °FWarm.6 mph46%30.07 "HgN/A
3:00 PM80 °FWarm.6 mph49%30.09 "HgN/A
2:00 PM80 °FSunny.6 mph51%30.11 "Hg43 mi
1:00 PM78 °FWarm.7 mph54%30.14 "HgN/A
12:00 PM76 °FMild.5 mph56%30.16 "HgN/A
11:00 AM73 °FSunny.6 mph59%30.18 "Hg43 mi
10:00 AM71 °FMild.3 mph66%30.20 "HgN/A
9:00 AM68 °FMild.1 mph74%30.22 "HgN/A
8:00 AM61 °FSunny.No wind84%30.24 "Hg43 mi
7:00 AM58 °FCool.1 mph89%30.24 "HgN/A
6:00 AM57 °FCool.1 mph89%30.23 "HgN/A
Weather by CustomWeather, © 2016

See weather overviewHow to use our weather pages